When you browse on this site, cookies collect data to enhance your experience and personalize the content and advertising you see.
Visit our Privacy Policy to learn more. By continuing to use the site, you agree to this use of cookies and data.
  • In Hungary
  • List of Countries
  • For 7 days
  • Water Temperature
  • Satellite Maps
  • Weather Map
  • News
  • Weather Widgets
  • user-avatar
    Login

    Hourly Weather Chhindwara

    Today, 18 November, Sunday

    Time Temperature Precipitation Wind Pressure Humidity
    00:00 +21°C° 0 mm 1 mps 700 mmHg 53%
    01:00 +21°C° 0 mm 1 mps 700 mmHg 53%
    02:00 +20°C° 0 mm 1 mps 700 mmHg 54%
    03:00 +20°C° 0 mm 1 mps 700 mmHg 56%
    04:00 +18°C° 0 mm 0 mps 701 mmHg 57%
    05:00 +17°C° 0 mm 0 mps 701 mmHg 58%
    06:00 +19°C° 0 mm 0 mps 701 mmHg 54%
    07:00 +21°C° 0 mm 0 mps 702 mmHg 51%
    08:00 +23°C° 0 mm 0 mps 703 mmHg 47%
    09:00 +26°C° 0 mm 1 mps 703 mmHg 43%
    10:00 +28°C° 0 mm 1 mps 703 mmHg 38%
    11:00 +30°C° 0 mm 2 mps 703 mmHg 33%
    12:00 +30°C° 0 mm 1 mps 703 mmHg 32%
    13:00 +31°C° 0 mm 1 mps 702 mmHg 30%
    14:00 +31°C° 0 mm 1 mps 701 mmHg 28%
    15:00 +30°C° 0 mm 1 mps 701 mmHg 32%
    16:00 +28°C° 0 mm 1 mps 701 mmHg 36%
    17:00 +26°C° 0 mm 1 mps 700 mmHg 40%
    18:00 +25°C° 0 mm 1 mps 701 mmHg 41%
    19:00 +24°C° 0 mm 1 mps 701 mmHg 42%
    20:00 +23°C° 0 mm 1 mps 702 mmHg 43%
    21:00 +23°C° 0 mm 1 mps 702 mmHg 43%
    22:00 +22°C° 0 mm 1 mps 702 mmHg 42%
    23:00 +22°C° 0 mm 1 mps 702 mmHg 42%

    Tomorrow, 19 November, Monday

    Time Temperature Precipitation Wind Pressure Humidity
    00:00 +22°C° 0 mm 1 mps 702 mmHg 43%
    01:00 +21°C° 0 mm 1 mps 702 mmHg 43%
    02:00 +21°C° 0 mm 1 mps 701 mmHg 43%
    03:00 +21°C° 0 mm 1 mps 701 mmHg 44%
    04:00 +21°C° 0 mm 1 mps 701 mmHg 45%
    05:00 +20°C° 0 mm 1 mps 701 mmHg 46%
    06:00 +22°C° 0 mm 1 mps 702 mmHg 45%
    07:00 +23°C° 0 mm 1 mps 703 mmHg 43%
    08:00 +25°C° 0 mm 1 mps 704 mmHg 42%
    09:00 +27°C° 0 mm 1 mps 704 mmHg 39%
    10:00 +28°C° 0 mm 1 mps 704 mmHg 36%
    11:00 +30°C° 0 mm 1 mps 704 mmHg 33%
    12:00 +31°C° 0 mm 1 mps 704 mmHg 32%
    13:00 +31°C° 0 mm 1 mps 703 mmHg 30%
    14:00 +31°C° 0 mm 1 mps 703 mmHg 29%
    15:00 +30°C° 0 mm 1 mps 702 mmHg 33%
    16:00 +28°C° 0 mm 1 mps 702 mmHg 37%
    17:00 +26°C° 0 mm 1 mps 702 mmHg 40%
    18:00 +25°C° 0 mm 1 mps 702 mmHg 41%
    19:00 +24°C° 0 mm 1 mps 703 mmHg 42%
    20:00 +23°C° 0 mm 1 mps 703 mmHg 43%
    21:00 +23°C° 0 mm 1 mps 703 mmHg 43%
    22:00 +23°C° 0 mm 1 mps 703 mmHg 43%
    23:00 +22°C° 0 mm 1 mps 703 mmHg 43%

    Day after tomorrow, 20 November, Tuesday

    Time Temperature Precipitation Wind Pressure Humidity
    00:00 +22°C° 0 mm 1 mps 703 mmHg 43%
    01:00 +22°C° 0 mm 1 mps 702 mmHg 43%
    02:00 +21°C° 0 mm 1 mps 702 mmHg 42%
    03:00 +21°C° 0 mm 1 mps 702 mmHg 42%
    04:00 +21°C° 0 mm 1 mps 702 mmHg 42%
    05:00 +20°C° 0 mm 1 mps 702 mmHg 42%
    06:00 +22°C° 0 mm 1 mps 703 mmHg 40%
    07:00 +24°C° 0 mm 1 mps 704 mmHg 38%
    08:00 +25°C° 0 mm 1 mps 705 mmHg 37%
    09:00 +27°C° 0 mm 1 mps 705 mmHg 33%
    10:00 +29°C° 0 mm 1 mps 705 mmHg 30%
    11:00 +31°C° 0 mm 1 mps 705 mmHg 27%
    12:00 +31°C° 0 mm 1 mps 704 mmHg 26%
    13:00 +31°C° 0 mm 2 mps 703 mmHg 25%
    14:00 +32°C° 0 mm 2 mps 703 mmHg 24%
    15:00 +30°C° 0 mm 2 mps 702 mmHg 29%
    16:00 +28°C° 0 mm 2 mps 702 mmHg 33%
    17:00 +26°C° 0 mm 2 mps 702 mmHg 37%
    18:00 +25°C° 0 mm 2 mps 702 mmHg 38%
    19:00 +24°C° 0 mm 2 mps 703 mmHg 39%
    20:00 +23°C° 0 mm 2 mps 703 mmHg 40%
    21:00 +23°C° 0 mm 2 mps 703 mmHg 41%
    22:00 +23°C° 0 mm 2 mps 703 mmHg 41%
    23:00 +22°C° 0 mm 1 mps 703 mmHg 42%

    21 November, Wednesday

    Time Temperature Precipitation Wind Pressure Humidity
    00:00 +22°C° 0 mm 1 mps 703 mmHg 42%
    01:00 +21°C° 0 mm 1 mps 702 mmHg 42%
    02:00 +21°C° 0 mm 1 mps 702 mmHg 42%
    03:00 +21°C° 0 mm 1 mps 702 mmHg 43%
    04:00 +20°C° 0 mm 1 mps 702 mmHg 44%
    05:00 +20°C° 0 mm 1 mps 702 mmHg 44%
    06:00 +22°C° 0 mm 1 mps 703 mmHg 43%
    07:00 +23°C° 0 mm 2 mps 704 mmHg 41%
    08:00 +24°C° 0 mm 2 mps 705 mmHg 39%
    09:00 +26°C° 0 mm 2 mps 705 mmHg 35%
    10:00 +28°C° 0 mm 2 mps 705 mmHg 31%
    11:00 +30°C° 0 mm 2 mps 705 mmHg 27%
    12:00 +30°C° 0 mm 2 mps 704 mmHg 26%
    13:00 +31°C° 0 mm 2 mps 703 mmHg 25%
    14:00 +31°C° 0 mm 2 mps 703 mmHg 25%
    15:00 +29°C° 0 mm 2 mps 702 mmHg 29%
    16:00 +27°C° 0 mm 2 mps 702 mmHg 32%
    17:00 +25°C° 0 mm 2 mps 702 mmHg 36%
    18:00 +24°C° 0 mm 2 mps 702 mmHg 38%
    19:00 +23°C° 0 mm 2 mps 703 mmHg 39%
    20:00 +21°C° 0 mm 2 mps 703 mmHg 40%
    21:00 +21°C° 0 mm 2 mps 703 mmHg 41%
    22:00 +21°C° 0 mm 2 mps 703 mmHg 41%
    23:00 +21°C° 0 mm 1 mps 703 mmHg 41%

    22 November, Thursday

    Time Temperature Precipitation Wind Pressure Humidity
    00:00 +21°C° 0 mm 1 mps 703 mmHg 42%
    01:00 +21°C° 0 mm 1 mps 702 mmHg 42%
    02:00 +20°C° 0 mm 1 mps 702 mmHg 42%
    03:00 +20°C° 0 mm 1 mps 702 mmHg 43%
    04:00 +20°C° 0 mm 1 mps 702 mmHg 44%
    05:00 +19°C° 0 mm 1 mps 702 mmHg 45%
    06:00 +21°C° 0 mm 1 mps 703 mmHg 43%
    07:00 +22°C° 0 mm 1 mps 704 mmHg 41%
    08:00 +24°C° 0 mm 1 mps 705 mmHg 39%
    09:00 +26°C° 0 mm 2 mps 705 mmHg 34%
    10:00 +28°C° 0 mm 2 mps 705 mmHg 29%
    11:00 +29°C° 0 mm 2 mps 705 mmHg 24%
    12:00 +30°C° 0 mm 2 mps 704 mmHg 24%
    13:00 +30°C° 0 mm 2 mps 704 mmHg 23%
    14:00 +31°C° 0 mm 2 mps 703 mmHg 22%
    15:00 +29°C° 0 mm 2 mps 703 mmHg 26%
    16:00 +27°C° 0 mm 2 mps 703 mmHg 30%
    17:00 +25°C° 0 mm 2 mps 702 mmHg 34%
    18:00 +24°C° 0 mm 2 mps 703 mmHg 35%
    19:00 +23°C° 0 mm 2 mps 703 mmHg 35%
    20:00 +21°C° 0 mm 2 mps 704 mmHg 36%
    21:00 +20°C° 0 mm 2 mps 704 mmHg 36%
    22:00 +20°C° 0 mm 2 mps 704 mmHg 36%
    23:00 +19°C° 0 mm 2 mps 703 mmHg 36%

    23 November, Friday

    Time Temperature Precipitation Wind Pressure Humidity
    00:00 +19°C° 0 mm 2 mps 703 mmHg 36%
    01:00 +19°C° 0 mm 2 mps 703 mmHg 36%
    02:00 +18°C° 0 mm 2 mps 703 mmHg 36%
    03:00 +18°C° 0 mm 2 mps 703 mmHg 36%
    04:00 +18°C° 0 mm 2 mps 703 mmHg 36%
    05:00 +17°C° 0 mm 2 mps 703 mmHg 37%
    06:00 +19°C° 0 mm 2 mps 704 mmHg 35%
    07:00 +20°C° 0 mm 2 mps 705 mmHg 33%
    08:00 +23°C° 0 mm 2 mps 706 mmHg 32%
    09:00 +25°C° 0 mm 2 mps 706 mmHg 27%
    10:00 +27°C° 0 mm 3 mps 706 mmHg 22%
    11:00 +28°C° 0 mm 3 mps 706 mmHg 18%
    12:00 +29°C° 0 mm 3 mps 705 mmHg 17%
    13:00 +29°C° 0 mm 4 mps 704 mmHg 17%
    14:00 +30°C° 0 mm 4 mps 704 mmHg 17%
    15:00 +27°C° 0 mm 3 mps 703 mmHg 21%
    16:00 +25°C° 0 mm 3 mps 703 mmHg 25%
    17:00 +22°C° 0 mm 3 mps 703 mmHg 29%
    18:00 +21°C° 0 mm 2 mps 703 mmHg 30%
    19:00 +20°C° 0 mm 2 mps 703 mmHg 30%
    20:00 +19°C° 0 mm 2 mps 704 mmHg 31%
    21:00 +19°C° 0 mm 2 mps 704 mmHg 31%
    22:00 +19°C° 0 mm 2 mps 704 mmHg 31%
    23:00 +18°C° 0 mm 2 mps 703 mmHg 32%
    Show more